Location: Br�ttisellen
(47.4227°N, 8.6287°E)
Time: 01:24:07
(UTC+00:00)

STARLINK-1203 - Pass Details

Date: 09 April 2020
Orbit: 559 x 560 km, 53.0° (Epoch: 30 May)

Event Time Altitude Azimuth Distance (km) Brightness Sun altitude
Rises 19:06:17 0° 296° (WNW) 2,753 9.5 -10.3°
Reaches altitude 10° 19:08:34 10° 300° (WNW) 1,856 7.9 -10.7°
Maximum altitude 19:12:44 56° 20° (NNE) 670 4.1 -11.3°
Enters shadow 19:15:57 16° 96° (E) 1,498 5.3 -11.8°
